SENTINEL-1A (39634 NORAD) Tracking and Keplerian Element Data

This shows tracking and keplerian element data for the satellite.

Feedback or suggestion? Click here.




ElementValue
Catalog39634
NameSENTINEL-1A
Epoch Orbit27403
Epoch Day146.80742505
Epoch Year2019
RAAN154.3188
Inclination98.1818
Eccentricity0.0001326
Argument of Perigee85.3893
Mean Anonmoly274.7453
Mean Motion14.59197987
Decay Rate-2.1E-07
L11 39634U 14016A 19146.80742505 -.00000021 00000-0 53091-5 0 9996
L22 39634 98.1818 154.3188 0001326 85.3893 274.7453 14.59197987274038

Live tracking and technical data element details for SENTINEL-1A (NORAD 39634). SENTINEL-1A can be tracked NOW for your location showing map with azimuth and elevation plus other details from your city location.

Track the satellite on the map from your city or location and see movement details for azimuth, elevation, latitude, longitude, range, height, and movement on the map or in text.







IsCatalogInMostPopularTable: catalog: 39634, numindb: 200
Update: records affected: 1



GetName: 39634 SENTINEL-1A

Hit Count: updated at: Mon, 27 May 2019 03:04:21 GMT